Location: Arboyeti
(42.1122°N, 44.6017°E)
Time: 04:40:54
(UTC+00:00)

SJ 16-02 - Pass Details

Date: 19 April 2021
Orbit: 605 x 617 km, 75.0° (Epoch: 09 May)

Event Time Altitude Azimuth Distance (km) Brightness Sun altitude
Exits shadow 22:33:41 28° 30° (NNE) 1,151 3.2 -32.3°
Drops below altitude 10° 22:35:53 10° 23° (NNE) 1,985 4.8 -32.1°
Sets 22:38:09 0° 21° (NNE) 2,896 5.9 -31.9°
